DW8569 Weather Reports


time (UTC)temp
F
wind
direction
speed
knots
gust
knots
rain 1hr
in
rain 24hr
in
rain mn
in
humidity
%
barometer
mb
20260505164522 87 254 0.0 2.6 0.00 0.00 0.00 79 1009.2
20260505163020 87 272 0.0 0.9 0.00 0.00 0.00 78 1009.2
20260505161518 86 285 0.0 2.6 0.00 0.00 0.00 79 1009.6
20260505153007 83 227 0.0 2.6 0.00 0.00 0.00 77 1010.0
20260505151504 80 171 0.0 0.9 0.00 0.00 0.00 77 1009.8
20260505124522 64 140 0.0 0.9 0.00 0.00 0.00 58 1010.5
20260505123019 63 138 0.0 1.7 0.00 0.00 0.00 57 1010.5
20260505121515 63 138 0.0 1.7 0.00 0.00 0.00 56 1010.4
20260505120033 61 138 0.0 2.6 0.00 0.00 0.00 54 1010.4
20260505114510 60 140 0.0 4.3 0.00 0.00 0.00 51 1010.3
20260505113005 59 208 0.0 0.9 0.00 0.00 0.00 47 1010.5
20260505111502 59 209 0.0 0.9 0.00 0.00 0.00 46 1010.4
20260505101555 56 217 0.0 1.7 0.00 0.00 0.00 46 1010.4
20260505100053 56 218 0.0 0.0 0.00 0.00 0.00 46 1009.8
20260505094552 56 218 0.0 0.0 0.00 0.00 0.00 46 1009.5
20260505093054 56 218 0.0 0.0 0.00 0.00 0.00 46 1009.3
20260505091551 56 218 0.0 1.7 0.00 0.00 0.00 46 1009.3
20260505090051 55 221 0.0 0.9 0.00 0.00 0.00 46 1009.2
20260505084550 55 221 0.0 0.0 0.00 0.00 0.00 46 1009.3
20260505083050 55 221 0.0 0.0 0.00 0.00 0.00 46 1009.4
20260505081548 55 221 0.0 0.0 0.00 0.00 0.00 48 1009.4
20260505080047 55 221 0.0 0.0 0.00 0.00 0.00 53 1009.5
20260505074546 55 221 0.0 0.0 0.00 0.00 0.00 57 1009.4
20260505073059 55 221 0.0 0.0 0.00 0.00 0.00 62 1009.4
20260505071539 56 221 0.0 0.0 0.00 0.00 0.00 68 1009.2
20260505070038 56 221 0.0 0.0 0.00 0.00 0.00 70 1009.3
20260505064541 56 221 0.0 0.0 0.00 0.00 0.00 73 1009.3
20260505063034 57 221 0.0 0.0 0.00 0.00 0.00 75 1009.3
20260505061546 57 221 0.0 0.0 0.00 0.00 0.00 77 1009.3
20260505060034 57 221 0.0 0.0 0.00 0.00 0.00 78 1009.3
20260505054551 58 221 0.0 2.6 0.00 0.00 0.00 79 1009.4
20260505053031 58 252 0.0 0.0 0.00 0.00 0.00 80 1009.4
20260505051526 58 252 0.0 0.9 0.00 0.00 0.00 81 1009.6
20260505041520 58 254 0.0 1.7 0.00 0.00 0.00 86 1009.9
20260505040018 58 254 0.0 0.9 0.00 0.00 0.00 87 1010.0
20260505034517 59 254 0.0 0.0 0.00 0.00 0.00 89 1010.0
20260505033020 59 254 0.0 0.0 0.00 0.00 0.00 91 1010.1
20260505031536 59 253 0.0 0.0 0.00 0.00 0.00 92 1010.2
20260505030016 60 253 0.0 1.7 0.00 0.00 0.00 93 1010.3
20260505024529 60 253 0.0 1.7 0.00 0.00 0.00 94 1010.3
20260505023015 61 253 0.0 2.6 0.00 0.00 0.00 94 1010.4
20260505021518 61 253 0.0 0.9 0.00 0.00 0.00 94 1010.4
20260505020026 62 252 0.0 0.9 0.00 0.00 0.00 94 1010.6
20260505014516 62 252 0.0 0.0 0.00 0.00 0.00 94 1010.3
20260505013013 63 252 0.0 0.9 0.00 0.00 0.00 94 1010.3
20260505011521 63 252 0.0 1.7 0.00 0.00 0.00 94 1010.0
20260505010014 64 252 0.0 0.9 0.00 0.00 0.00 94 1009.9
20260505004529 65 251 0.0 2.6 0.00 0.00 0.00 94 1009.6
20260505003012 66 244 0.0 0.0 0.00 0.00 0.00 89 1009.5
20260505001511 67 244 0.0 0.0 0.00 0.00 0.00 85 1009.1
20260505000018 68 244 0.0 0.0 0.00 0.00 0.00 84 1008.9
20260504234510 69 244 0.0 0.0 0.00 0.00 0.00 83 1008.8
20260504233010 69 244 0.0 0.0 0.00 0.00 0.00 83 1008.5
20260504231509 70 257 0.0 0.0 0.00 0.00 0.00 81 1008.4
20260504230009 71 257 0.0 0.9 0.00 0.00 0.00 80 1008.3
20260504224510 71 261 0.0 0.9 0.00 0.00 0.00 80 1008.3
20260504223008 72 263 0.0 3.5 0.00 0.00 0.00 79 1008.2
20260504221509 72 258 0.0 4.3 0.00 0.00 0.00 78 1008.3
20260504220011 72 121 0.0 1.7 0.00 0.00 0.00 78 1008.4
20260504214504 73 162 0.0 2.6 0.00 0.00 0.00 78 1008.6
20260504213004 73 151 0.0 0.9 0.00 0.00 0.00 77 1008.7
20260504211503 73 121 0.9 7.0 0.00 0.00 0.00 77 1008.8
20260504210002 73 132 0.0 2.6 0.00 0.00 0.00 76 1008.7
20260504204503 73 174 0.0 0.0 0.00 0.00 0.00 78 1008.8
20260504203113 73 173 0.0 2.6 0.00 0.00 0.00 77 1008.8
20260504201601 73 268 0.0 0.9 0.00 0.00 0.00 78 1008.8
20260504200058 73 160 0.0 6.1 0.00 0.00 0.00 77 1009.0
20260504194556 73 125 0.0 4.3 0.00 0.00 0.00 78 1009.0
20260504193055 73 128 0.0 2.6 0.00 0.00 0.00 79 1009.1
20260504191604 73 123 0.0 1.7 0.00 0.00 0.00 78 1009.3
20260504190054 73 129 0.0 2.6 0.00 0.00 0.00 77 1009.5
20260504184549 72 127 0.0 6.1 0.00 0.00 0.00 78 1009.8
20260504183047 73 138 0.0 4.3 0.00 0.00 0.00 77 1010.0
20260504181549 73 210 0.0 4.3 0.00 0.00 0.00 76 1010.0
20260504180044 74 122 0.0 3.5 0.00 0.00 0.00 76 1010.3
20260504174543 74 137 0.0 4.3 0.00 0.00 0.00 77 1010.5
20260504173042 75 126 0.0 0.9 0.00 0.00 0.00 76 1010.7
20260504171539 74 134 0.0 2.6 0.00 0.00 0.00 77 1010.8